Find Starlink 31512

NORAD ID: 59500 Int'l Des: 2024-071 Owner: SPXS Country: US Constellation: starlink operational
LEOCIRCULAR

現在のビュー

3D地球を読み込み中...

About Starlink 31512

Starlink 31512 (NORAD 59500) is a starlink constellation satellite (v2 mini) launched Apr 13, 2024 by SPXS of US. It operates in LEO, CIRCULAR orbit with a mass of 730.00 kg.

Starlink 31512について

説明を読み込み中...

次回通過

Passes for default location (London). Set your location on the main map for personalized predictions.

高度履歴

Loading altitude history...

軌道要素

1 59500U 24071S 26171.16607003 .00000980 00000-0 45138-4 0 9995
2 59500 43.0011 80.8617 0000957 263.5747 96.4995 15.27582987124334
Epoch: Jun 20, 2026 • Age: 13 hours

現在のステータス

高度 482.3 km
速度 7.63 km/s
衛星直下点 10.77°N, 68.44°W
打ち上げ日 Apr 13, 2024
運用期間 2.1 years
タイプ internet

技術仕様

分類 Payload
質量 730.00 kg
乾燥質量 700.00 kg
総質量 730.00 kg
長さ 0.30 m
直径 4.10 m
スパン 29.00 m
形状 Box + pan
製造者 SPXS
バスタイプ Starlink V2M
フェーズステータス In Orbit
所有者/国 SPXS/US

Most Searched